ORBCOMM FM117

Last updated on Tue Sep 22 2026 00:03:23 GMT+0000 (Coordinated Universal Time)

1 41188U 15081K 26264.13046028 .00000198 00000+0 78035-4 0 9995 2 41188 47.0004 87.1479 0003010 282.0322 78.0226 14.58965562574134
UTC large
Height (km)
Speed (km/s)
/
Latitude / Longitude
Inclination (degrees)
Orbital Period (minutes)
Azimuth
Elevation
Range (km)
Doppler Factor

Next 0 passes for location: London (51.5072 / 0.1276)

No passes found over London.
ORBCOMM FM117